Location: Cypress Hills Dark-Sky Preserve - CHICO
(49.6176°N, 110.2634°W)
Time: 08:11:28
(UTC-06:00)

Amateur Radio Satellites - All Passes

Search period start: 30 July 2015 07:41
Search period end: 31 July 2015 07:41
Location: Cypress Hills Dark-Sky Preserve - CHICO, 49.6176°N, 110.2634°W

Satellite Date Start Highest point End Downlink Frequencies (MHz)
Time Altitude Azimuth
GONETS M04 30 Jul 07:50:27 07:59:11 72° 284° (WNW) 08:07:54
RS-15 30 Jul 07:52:21 08:03:55 68° 239° (WSW) 08:15:53 29.354- 29.394
AO-7 30 Jul 07:56:26 08:03:11 28° 313° (NW) 08:09:45 29.400- 29.500
BEESAT 2 30 Jul 07:57:35 08:01:00 25° 34° (NNE) 08:04:24 435.950
PRISM 30 Jul 08:01:21 08:05:23 44° 261° (W) 08:09:26 437.425
Cubesat XI-IV 30 Jul 08:01:26 08:06:50 88° 101° (E) 08:12:10 437.490
AUBIESAT-1 30 Jul 08:01:44 08:03:46 14° 49° (NE) 08:06:00 437.475
BRITE-PL 30 Jul 08:08:17 08:11:02 17° 90° (E) 08:14:02 437.365/2234.400
HO-68 30 Jul 08:13:20 08:15:38 12° 79° (E) 08:18:23 435.675
GOMX 1 30 Jul 08:30:19 08:33:16 18° 90° (E) 08:36:28 467.674
DOVE 4 30 Jul 08:30:45 08:32:16 12° 85° (E) 08:34:03 437.250
BEESAT 3 30 Jul 08:40:31 08:44:33 56° 46° (NE) 08:48:30 437.485
STRAND 1 30 Jul 08:49:36 08:53:22 20° 271° (W) 08:57:00 437.568
CINEMA 3 30 Jul 08:57:25 08:57:41 10° 83° (E) 08:58:15 145.822/145.860
CUTE-I 30 Jul 08:58:28 09:03:19 35° 296° (WNW) 09:08:05 437.470
M-CUBED/EXP-1 PRIME 30 Jul 09:02:19 09:06:13 45° 63° (ENE) 09:10:29 437.505
Cosmos 2499 30 Jul 09:06:16 09:13:43 89° 279° (W) 09:21:51 435.465 / 435.565
AIST 2 30 Jul 09:15:35 09:19:23 31° 37° (NE) 09:23:10 435.215
UNISAT 6 30 Jul 09:17:55 09:19:31 12° 55° (NE) 09:21:19 437.425
YUBILEINY 30 Jul 09:23:37 09:25:32 11° 36° (NE) 09:27:55 435.215
SO-50 30 Jul 09:31:32 09:33:11 12° 109° (ESE) 09:35:07 436.795
AUBIESAT-1 30 Jul 09:33:37 09:37:42 78° 69° (ENE) 09:42:10 437.475
BEESAT 2 30 Jul 09:35:19 09:39:24 63° 234° (SW) 09:43:22 435.950
PCSat 30 Jul 09:38:06 09:42:12 23° 110° (ESE) 09:46:27 145.827
CUBEBUG 2 30 Jul 09:41:07 09:43:24 14° 86° (E) 09:45:55 437.445
Cubesat XI-IV 30 Jul 09:42:43 09:46:19 18° 304° (NW) 09:49:45 437.490
COMPASS 1 30 Jul 09:42:52 09:46:33 28° 94° (E) 09:50:15 437.405
BRITE-PL 30 Jul 09:45:48 09:50:00 58° 287° (WNW) 09:54:25 437.365/2234.400
Oscar 11 30 Jul 09:50:28 09:52:57 15° 87° (E) 09:55:34 145.826/435.025
AO-7 30 Jul 09:51:48 09:53:12 10° 339° (NNW) 09:54:22 29.400- 29.500
GONETS M04 30 Jul 09:51:52 09:58:01 20° 310° (NW) 10:03:51
CUTE 1.7 + AOD 2 30 Jul 09:53:22 09:57:38 55° 100° (E) 10:01:51 437.475
SEEDS 30 Jul 09:54:04 09:58:11 45° 98° (E) 10:02:18 437.485
POPSAT HIP 1 30 Jul 09:56:40 09:57:47 11° 56° (NE) 09:59:07 437.405
HO-68 30 Jul 09:58:00 10:05:07 60° 102° (ESE) 10:12:13 435.675
TIGRISAT 30 Jul 09:59:48 10:03:22 26° 64° (ENE) 10:07:05 435.000
ANTELSAT 30 Jul 10:00:34 10:04:13 27° 64° (ENE) 10:08:01 437.575/2403.000
CANX-2 30 Jul 10:01:23 10:05:44 73° 102° (ESE) 10:10:01 2200.000
QB50P2 30 Jul 10:02:53 10:04:48 13° 58° (ENE) 10:06:53 145.880/145.840
DOVE 4 30 Jul 10:06:13 10:10:43 88° 104° (ESE) 10:15:29 437.250
RS-15 30 Jul 10:06:39 10:14:28 20° 261° (W) 10:21:45 29.354- 29.394
GOMX 1 30 Jul 10:07:29 10:11:48 59° 287° (WNW) 10:16:23 467.674
BEESAT 3 30 Jul 10:19:05 10:22:10 21° 244° (WSW) 10:25:08 437.485
AAUSAT CUBESAT 2 30 Jul 10:25:54 10:30:07 66° 101° (ESE) 10:34:17 437.432
DELFI C3 30 Jul 10:27:24 10:30:37 23° 92° (E) 10:33:53 145.870
DUCHIFAT 1 30 Jul 10:28:32 10:31:37 21° 62° (ENE) 10:34:46 145.980
QB50P1 30 Jul 10:30:01 10:33:13 22° 63° (ENE) 10:36:30 145.935-145.965
CINEMA 3 30 Jul 10:31:07 10:35:43 75° 102° (ESE) 10:40:30 145.822/145.860
NANOSAT C BR1 30 Jul 10:32:04 10:35:19 22° 63° (ENE) 10:38:38 145.865
M-CUBED/EXP-1 PRIME 30 Jul 10:38:00 10:41:16 23° 264° (W) 10:44:42 437.505
ZACube-1 30 Jul 10:46:05 10:50:12 34° 96° (E) 10:54:23 437.345
UNISAT 6 30 Jul 10:51:13 10:55:34 78° 74° (ENE) 11:00:04 437.425
AIST 2 30 Jul 10:54:04 10:58:06 45° 238° (WSW) 11:02:03 435.215
Cosmos 2499 30 Jul 11:02:23 11:08:19 23° 306° (NW) 11:14:22 435.465 / 435.565
UWE-3 30 Jul 11:04:58 11:09:31 65° 101° (E) 11:14:08 435.000/436.395/437.385
SO-50 30 Jul 11:08:09 11:12:56 72° 127° (SE) 11:17:52 436.795
FUNcube-1 30 Jul 11:08:34 11:13:00 54° 100° (E) 11:17:29 145.935
POLYITAN 1 30 Jul 11:10:58 11:15:03 52° 71° (ENE) 11:19:12 437.675
AUBIESAT-1 30 Jul 11:11:02 11:13:08 13° 269° (W) 11:15:08 437.475
CUBEBUG 2 30 Jul 11:16:07 11:20:43 82° 285° (WNW) 11:25:24 437.445
YUBILEINY 30 Jul 11:17:38 11:25:46 40° 65° (ENE) 11:34:00 435.215
COMPASS 1 30 Jul 11:18:25 11:22:15 33° 292° (WNW) 11:26:02 437.405
AISAT 30 Jul 11:19:23 11:21:44 14° 87° (E) 11:24:15 437.250
PCSat 30 Jul 11:19:47 11:25:11 70° 309° (NW) 11:30:38 145.827
O/OREOS (USA 219) 30 Jul 11:20:29 11:24:42 35° 53° (NE) 11:28:57 437.305
Oscar 11 30 Jul 11:25:17 11:29:40 68° 286° (WNW) 11:33:59 145.826/435.025
UKube-1 30 Jul 11:26:48 11:30:16 23° 93° (E) 11:33:47 .
POPSAT HIP 1 30 Jul 11:28:47 11:32:59 78° 75° (ENE) 11:37:12 437.405
CUTE 1.7 + AOD 2 30 Jul 11:30:02 11:33:12 20° 298° (WNW) 11:36:16 437.475
SEEDS 30 Jul 11:30:21 11:33:45 23° 296° (WNW) 11:37:02 437.485
TIGRISAT 30 Jul 11:35:51 11:39:58 41° 263° (W) 11:44:11 435.000
QB50P2 30 Jul 11:35:54 11:40:07 87° 256° (WSW) 11:44:22 145.880/145.840
ANTELSAT 30 Jul 11:36:46 11:40:51 39° 263° (W) 11:45:03 437.575/2403.000
CANX-2 30 Jul 11:38:29 11:41:09 16° 300° (WNW) 11:43:41 2200.000
CUBEBUG 1 30 Jul 11:40:15 11:42:19 13° 87° (E) 11:44:34 437.445
BUGSAT 1 30 Jul 11:44:00 11:48:02 72° 75° (ENE) 11:52:04 437.445
DOVE 4 30 Jul 11:45:32 11:47:59 14° 301° (WNW) 11:50:22 437.250
HO-68 30 Jul 11:46:10 11:52:35 36° 302° (WNW) 11:58:55 435.675
HUMSAT D 30 Jul 11:49:51 11:54:09 63° 101° (E) 11:58:27 437.325/437.525
DX 1 30 Jul 11:51:15 11:55:25 43° 99° (E) 11:59:34 434.975-435.025
Cosmos 2491 30 Jul 11:57:45 12:04:34 27° 80° (E) 12:11:37 435.465 / 435.565
VELOX 1 30 Jul 11:57:58 12:01:55 32° 96° (E) 12:05:52 145.980
ESTCUBE 1 30 Jul 12:01:36 12:05:22 26° 93° (E) 12:09:10 437.505/2401.250
DELFI C3 30 Jul 12:02:01 12:05:51 39° 291° (WNW) 12:09:37 145.870
AAUSAT CUBESAT 2 30 Jul 12:02:34 12:05:16 16° 299° (WNW) 12:07:51 437.432
DUCHIFAT 1 30 Jul 12:03:04 12:07:08 49° 261° (W) 12:11:14 145.980
QB50P1 30 Jul 12:04:47 12:08:50 45° 261° (W) 12:12:55 145.935-145.965
NANOSAT C BR1 30 Jul 12:06:54 12:10:55 44° 262° (W) 12:14:58 145.865
50 SAT 30 Jul 12:08:39 12:12:32 48° 99° (E) 12:16:24 437.505
CINEMA 3 30 Jul 12:09:28 12:12:29 17° 299° (WNW) 12:15:26 145.822/145.860
ZACube-1 30 Jul 12:22:30 12:26:31 32° 293° (WNW) 12:30:32 437.345
SPROUT 30 Jul 12:24:23 12:26:04 12° 86° (E) 12:27:57 437.525
UNISAT 6 30 Jul 12:30:49 12:33:02 13° 275° (W) 12:35:06 437.425
UWE-3 30 Jul 12:42:25 12:45:39 19° 299° (WNW) 12:48:49 435.000/436.395/437.385
TISAT 1 30 Jul 12:44:19 12:45:50 12° 86° (E) 12:47:34 437.305
FUNcube-1 30 Jul 12:45:34 12:49:01 22° 297° (WNW) 12:52:25 145.935
POLYITAN 1 30 Jul 12:48:20 12:51:18 18° 270° (W) 12:54:12 437.675
SO-50 30 Jul 12:49:41 12:53:57 29° 328° (NNW) 12:58:16 436.795
AIST 1 30 Jul 12:54:14 12:58:30 54° 95° (E) 13:02:45
AISAT 30 Jul 12:54:28 12:58:53 72° 287° (WNW) 13:03:16 437.250
CUBEBUG 2 30 Jul 12:54:32 12:56:46 13° 303° (WNW) 12:58:51 437.445
Oscar 19 30 Jul 12:55:24 12:59:55 34° 64° (ENE) 13:04:32 437.125/150
Cosmos 2504 30 Jul 12:56:18 13:02:35 24° 57° (ENE) 13:09:17 435.465 / 435.565
O/OREOS (USA 219) 30 Jul 12:59:59 13:04:08 34° 253° (WSW) 13:08:14 437.305
UKube-1 30 Jul 13:02:29 13:06:35 42° 292° (WNW) 13:10:39 .
Oscar 11 30 Jul 13:04:08 13:05:05 10° 305° (NW) 13:05:49 145.826/435.025
PCSat 30 Jul 13:05:29 13:09:36 21° 332° (NNW) 13:13:40 145.827
POPSAT HIP 1 30 Jul 13:07:35 13:09:29 12° 274° (W) 13:11:11 437.405
YUBILEINY 30 Jul 13:14:28 13:23:04 58° 269° (W) 13:31:36 435.215
CUBEBUG 1 30 Jul 13:14:56 13:19:16 75° 287° (WNW) 13:23:35 437.445
QB50P2 30 Jul 13:16:14 13:16:46 10° 276° (W) 13:17:04 145.880/145.840
BUGSAT 1 30 Jul 13:22:10 13:24:03 13° 273° (W) 13:25:46 437.445
AO-7 30 Jul 13:26:23 13:31:08 17° 36° (NE) 13:36:10 29.400- 29.500
HUMSAT D 30 Jul 13:26:32 13:29:29 18° 299° (WNW) 13:32:20 437.325/437.525
DX 1 30 Jul 13:27:55 13:31:28 24° 297° (WNW) 13:34:56 434.975-435.025
VELOX 1 30 Jul 13:34:30 13:38:28 32° 294° (WNW) 13:42:22 145.980
HO-68 30 Jul 13:37:02 13:38:23 10° 325° (NW) 13:39:27 435.675
ESTCUBE 1 30 Jul 13:38:09 13:42:24 40° 292° (WNW) 13:46:35 437.505/2401.250
Gurwin Techsat 1B 30 Jul 13:38:59 13:43:25 28° 62° (ENE) 13:47:57 435.225
50 SAT 30 Jul 13:43:54 13:46:50 19° 297° (WNW) 13:49:40 437.505
Cosmos 2491 30 Jul 13:51:51 14:00:39 79° 282° (WNW) 14:09:27 435.465 / 435.565
SPROUT 30 Jul 13:58:28 14:02:48 81° 285° (WNW) 14:07:06 437.525
BEESAT 30 Jul 14:01:26 14:04:04 15° 87° (E) 14:06:53 436.000
ITAMSAT 1 30 Jul 14:11:40 14:16:36 45° 67° (ENE) 14:21:35 435.822/435.867
TISAT 1 30 Jul 14:18:01 14:22:15 81° 286° (WNW) 14:26:28 437.305
SWISSCUBE 30 Jul 14:20:52 14:24:42 24° 92° (E) 14:28:35 437.505
JAS-2 30 Jul 14:21:14 14:26:34 31° 57° (ENE) 14:32:35 435.910
CUSAT 1 30 Jul 14:25:11 14:25:39 10° 64° (ENE) 14:26:20 437.405
SO-50 30 Jul 14:33:11 14:36:03 15° 352° (N) 14:38:53 436.795
AISAT 30 Jul 14:33:18 14:34:44 11° 305° (NW) 14:35:59 437.250
AIST 1 30 Jul 14:33:26 14:36:33 18° 296° (WNW) 14:39:33
Oscar 19 30 Jul 14:34:25 14:39:14 40° 263° (W) 14:44:03 437.125/150
ITUPSAT 1 30 Jul 14:40:38 14:44:55 32° 95° (E) 14:49:13 437.325
Cosmos 2504 30 Jul 14:47:47 14:56:07 85° 80° (E) 15:04:47 435.465 / 435.565
PCSat 30 Jul 14:52:55 14:55:09 12° 357° (N) 14:57:23 145.827
CUBEBUG 1 30 Jul 14:53:32 14:54:56 11° 304° (NW) 14:56:10 437.445
AO-7 30 Jul 15:14:15 15:22:11 51° 59° (ENE) 15:30:11 29.400- 29.500
YUBILEINY 30 Jul 15:14:19 15:18:04 13° 290° (WNW) 15:21:17 435.215
Gurwin Techsat 1B 30 Jul 15:18:00 15:23:11 52° 260° (W) 15:28:24 435.225
KKS-1 30 Jul 15:23:36 15:26:25 17° 89° (E) 15:29:21 437.445
HORYU 2 30 Jul 15:31:19 15:35:20 35° 66° (ENE) 15:39:27 437.375
DANDE 30 Jul 15:32:00 15:34:50 26° 73° (ENE) 15:38:22 436.750
SPROUT 30 Jul 15:36:31 15:38:13 12° 303° (WNW) 15:39:46 437.525
BEESAT 30 Jul 15:37:47 15:42:35 79° 286° (WNW) 15:47:22 436.000
ITAMSAT 1 30 Jul 15:51:43 15:56:18 30° 266° (W) 16:00:52 435.822/435.867
Cosmos 2491 30 Jul 15:52:41 15:59:16 22° 308° (NW) 16:05:36 435.465 / 435.565
TISAT 1 30 Jul 15:55:50 15:57:22 12° 303° (WNW) 15:58:44 437.305
SWISSCUBE 30 Jul 15:58:13 16:02:51 49° 291° (WNW) 16:07:25 437.505
GONETS M04 30 Jul 15:59:09 16:05:10 21° 51° (NE) 16:11:29
CUSAT 1 30 Jul 16:04:45 16:08:26 85° 258° (WSW) 16:13:20 437.405
JAS-2 30 Jul 16:05:04 16:11:09 64° 260° (W) 16:18:07 435.910
SO-50 30 Jul 16:15:09 16:18:26 17° 16° (NNE) 16:21:47 436.795
ITUPSAT 1 30 Jul 16:18:27 16:22:52 37° 294° (WNW) 16:27:13 437.325
STARS 30 Jul 16:36:45 16:41:04 50° 100° (E) 16:45:24 437.465
PCSat 30 Jul 16:37:13 16:40:50 18° 23° (NNE) 16:44:30 145.827
Cosmos 2504 30 Jul 16:41:04 16:47:33 25° 280° (W) 16:53:56 435.465 / 435.565
KKS-1 30 Jul 16:59:06 17:03:32 64° 288° (WNW) 17:07:57 437.445
Cosmos 2499 30 Jul 16:59:53 17:03:36 14° 43° (NE) 17:07:49 435.465 / 435.565
CUTE-I 30 Jul 17:06:46 17:10:21 19° 56° (NE) 17:14:03 437.470
AO-7 30 Jul 17:07:04 17:15:07 48° 261° (W) 17:23:08 29.400- 29.500
HORYU 2 30 Jul 17:08:05 17:12:02 30° 265° (W) 17:15:58 437.375
DANDE 30 Jul 17:15:04 17:17:54 24° 263° (W) 17:21:19 436.750
BEESAT 30 Jul 17:17:17 17:19:43 14° 305° (NW) 17:21:59 436.000
MOZHAYETS 4 30 Jul 17:36:47 17:41:16 47° 98° (E) 17:45:44
Cubesat XI-IV 30 Jul 17:48:35 17:53:28 37° 65° (ENE) 17:58:24 437.490
GONETS M04 30 Jul 17:55:10 18:03:54 75° 77° (ENE) 18:12:39
SO-50 30 Jul 17:55:28 18:00:15 43° 40° (NE) 18:04:57 436.795
JAS-2 30 Jul 17:55:29 17:58:05 12° 285° (WNW) 18:00:23 435.910
STARS 30 Jul 18:13:48 18:17:15 22° 298° (WNW) 18:20:36 437.465
PCSat 30 Jul 18:20:13 18:25:32 52° 47° (NE) 18:30:50 145.827
KKS-1 30 Jul 18:38:38 18:39:22 10° 306° (NW) 18:39:54 437.445
CUTE-I 30 Jul 18:44:27 18:49:50 85° 255° (WSW) 18:55:15 437.470
HO-68 30 Jul 18:46:36 18:51:12 19° 47° (NE) 18:56:00 435.675
Cosmos 2499 30 Jul 18:51:13 18:59:28 48° 69° (ENE) 19:08:02 435.465 / 435.565
MOZHAYETS 4 30 Jul 19:14:28 19:18:16 25° 297° (WNW) 19:22:00
STRAND 1 30 Jul 19:15:49 19:18:53 16° 87° (E) 19:22:07 437.568
CUTE 1.7 + AOD 2 30 Jul 19:18:55 19:19:14 10° 55° (NE) 19:19:44 437.475
BRITE-PL 30 Jul 19:23:29 19:27:17 31° 67° (ENE) 19:31:00 437.365/2234.400
CANX-2 30 Jul 19:25:20 19:27:13 13° 58° (ENE) 19:29:14 2200.000
CUBESAT XI-V 30 Jul 19:26:03 19:30:36 54° 100° (E) 19:35:07 437.345
Cubesat XI-IV 30 Jul 19:28:33 19:33:34 39° 263° (W) 19:38:35 437.490
SO-50 30 Jul 19:36:09 19:40:48 40° 240° (WSW) 19:45:20 436.795
PRISM 30 Jul 19:39:52 19:42:42 18° 91° (E) 19:45:39 437.425
DOVE 4 30 Jul 19:40:35 19:43:21 18° 62° (ENE) 19:46:15 437.250
GOMX 1 30 Jul 19:43:02 19:46:38 28° 66° (ENE) 19:50:15 467.674
AAUSAT CUBESAT 2 30 Jul 19:48:34 19:49:45 11° 57° (ENE) 19:51:07 437.432
GONETS M04 30 Jul 19:52:52 20:00:04 29° 279° (W) 20:07:03
CINEMA 3 30 Jul 20:02:39 20:04:57 15° 59° (ENE) 20:07:24 145.822/145.860
PCSat 30 Jul 20:03:58 20:08:47 32° 247° (WSW) 20:13:31 145.827
RS-15 30 Jul 20:18:44 20:21:25 12° 93° (E) 20:25:06 29.354- 29.394
VERMONT LUNAR 30 Jul 20:27:50 20:29:00 12° 164° (SSE) 20:30:13 437.305
CUTE-I 30 Jul 20:27:57 20:30:50 14° 275° (W) 20:33:27 437.470
HO-68 30 Jul 20:30:46 20:37:50 69° 68° (ENE) 20:44:58 435.675
UWE-3 30 Jul 20:33:01 20:34:44 12° 57° (ENE) 20:36:37 435.000/436.395/437.385
FUNcube-1 30 Jul 20:36:31 20:37:07 10° 55° (NE) 20:37:55 145.935
COMPASS 1 30 Jul 20:38:03 20:41:51 34° 68° (ENE) 20:45:45 437.405
CUBEBUG 2 30 Jul 20:43:46 20:46:39 19° 61° (ENE) 20:49:41 437.445
Cosmos 2499 30 Jul 20:44:32 20:52:46 49° 271° (W) 21:01:07 435.465 / 435.565
Oscar 11 30 Jul 20:49:18 20:52:31 21° 63° (ENE) 20:55:51 145.826/435.025
SEEDS 30 Jul 20:49:59 20:54:08 55° 72° (ENE) 20:58:21 437.485
CUTE 1.7 + AOD 2 30 Jul 20:50:08 20:54:22 68° 74° (ENE) 20:58:40 437.475
STRAND 1 30 Jul 20:53:39 20:58:48 80° 288° (WNW) 21:03:54 437.568
CANX-2 30 Jul 20:58:14 21:02:31 89° 76° (ENE) 21:06:51 2200.000
BRITE-PL 30 Jul 21:01:57 21:05:52 30° 265° (W) 21:09:36 437.365/2234.400
CUBESAT XI-V 30 Jul 21:04:10 21:07:43 22° 298° (WNW) 21:11:11 437.345
HUMSAT D 30 Jul 21:13:40 21:14:41 11° 56° (NE) 21:15:53 437.325/437.525
PRISM 30 Jul 21:14:27 21:18:28 50° 290° (WNW) 21:22:26 437.425
DOVE 4 30 Jul 21:16:44 21:20:49 54° 260° (W) 21:24:54 437.250
DELFI C3 30 Jul 21:18:38 21:21:59 26° 66° (ENE) 21:25:26 145.870
DX 1 30 Jul 21:19:03 21:19:38 10° 54° (NE) 21:20:24 434.975-435.025
AAUSAT CUBESAT 2 30 Jul 21:20:27 21:24:40 78° 74° (ENE) 21:28:54 437.432
GOMX 1 30 Jul 21:20:58 21:24:48 31° 265° (W) 21:28:31 467.674
CINEMA 3 30 Jul 21:37:30 21:41:39 73° 258° (WSW) 21:45:54 145.822/145.860
ZACube-1 30 Jul 21:46:18 21:50:17 43° 70° (ENE) 21:54:24 437.345
PHONESAT 2.4 30 Jul 21:53:14 21:54:12 11° 160° (SSE) 21:55:14 2401.200-2431.200
ISS 30 Jul 21:53:41 21:54:47 11° 137° (SE) 21:55:59 145.825
Cosmos 2491 30 Jul 22:00:56 22:06:31 19° 49° (NE) 22:12:25 435.465 / 435.565
VERMONT LUNAR 30 Jul 22:02:56 22:05:01 16° 181° (S) 22:07:06 437.305
UWE-3 30 Jul 22:06:25 22:10:36 87° 76° (ENE) 22:14:57 435.000/436.395/437.385
FUNcube-1 30 Jul 22:08:29 22:12:40 70° 74° (ENE) 22:16:58 145.935
M-CUBED/EXP-1 PRIME 30 Jul 22:13:54 22:17:31 21° 95° (E) 22:21:13 437.505
COMPASS 1 30 Jul 22:13:56 22:17:35 27° 267° (W) 22:21:13 437.405
CUBEBUG 2 30 Jul 22:18:50 22:22:58 57° 260° (W) 22:27:13 437.445
HO-68 30 Jul 22:20:08 22:26:13 29° 269° (W) 22:32:12 435.675
RS-15 30 Jul 22:20:48 22:31:09 53° 116° (ESE) 22:42:00 29.354- 29.394
AISAT 30 Jul 22:20:57 22:24:24 23° 63° (ENE) 22:27:56 437.250
Oscar 11 30 Jul 22:24:10 22:28:25 51° 261° (W) 22:32:41 145.826/435.025
UKube-1 30 Jul 22:25:32 22:29:27 35° 67° (ENE) 22:33:26 .
SEEDS 30 Jul 22:27:22 22:30:19 18° 271° (W) 22:33:10 437.485
CUTE 1.7 + AOD 2 30 Jul 22:28:18 22:30:49 15° 273° (W) 22:33:11 437.475
STRAND 1 30 Jul 22:34:23 22:37:17 15° 306° (NW) 22:40:01 437.568
CANX-2 30 Jul 22:37:46 22:39:10 11° 276° (W) 22:40:21 2200.000
UNISAT 6 30 Jul 22:40:12 22:42:21 13° 85° (E) 22:44:43 437.425
CUBEBUG 1 30 Jul 22:40:13 22:43:25 21° 62° (ENE) 22:46:43 437.445
Cosmos 2499 30 Jul 22:42:03 22:44:03 11° 291° (WNW) 22:45:23 435.465 / 435.565
AUBIESAT-1 30 Jul 22:44:22 22:48:42 34° 101° (E) 22:53:00 437.475
HUMSAT D 30 Jul 22:45:34 22:49:43 76° 74° (ENE) 22:53:56 437.325/437.525
DX 1 30 Jul 22:50:49 22:55:07 67° 72° (ENE) 22:59:27 434.975-435.025
DELFI C3 30 Jul 22:53:11 22:56:56 35° 264° (W) 23:00:43 145.870
50 SAT 30 Jul 22:56:23 23:00:08 48° 71° (ENE) 23:03:57 437.505
AIST 1 30 Jul 22:57:16 23:00:36 22° 67° (ENE) 23:04:00
AAUSAT CUBESAT 2 30 Jul 22:58:58 23:00:53 12° 274° (W) 23:02:37 437.432
VELOX 1 30 Jul 22:59:30 23:03:45 49° 70° (ENE) 23:08:02 145.980
ESTCUBE 1 30 Jul 23:05:10 23:09:24 41° 68° (ENE) 23:13:41 437.505/2401.250
QB50P2 30 Jul 23:18:47 23:20:14 12° 85° (E) 23:21:53 145.880/145.840
SPROUT 30 Jul 23:22:24 23:25:14 18° 61° (ENE) 23:28:11 437.525
TIGRISAT 30 Jul 23:22:46 23:26:55 31° 95° (E) 23:31:06 435.000
ZACube-1 30 Jul 23:23:34 23:26:54 22° 269° (W) 23:30:12 437.345
ANTELSAT 30 Jul 23:23:51 23:28:04 33° 95° (E) 23:32:20 437.575/2403.000
ISS 30 Jul 23:27:29 23:30:40 53° 154° (SSE) 23:33:53 145.825
PHONESAT 2.4 30 Jul 23:28:53 23:31:23 18° 176° (S) 23:33:53 2401.200-2431.200
VERMONT LUNAR 30 Jul 23:40:07 23:41:02 11° 197° (SSW) 23:41:53 437.305
TISAT 1 30 Jul 23:40:14 23:42:56 17° 61° (ENE) 23:45:44 437.305
DUCHIFAT 1 30 Jul 23:43:49 23:46:52 19° 91° (E) 23:50:01 145.980
QB50P1 30 Jul 23:45:49 23:49:02 21° 91° (E) 23:52:21 145.935-145.965
UWE-3 30 Jul 23:46:36 23:47:55 11° 276° (W) 23:49:01 435.000/436.395/437.385
FUNcube-1 30 Jul 23:47:19 23:49:36 14° 274° (W) 23:51:44 145.935
NANOSAT C BR1 30 Jul 23:47:38 23:50:53 22° 92° (E) 23:54:14 145.865
M-CUBED/EXP-1 PRIME 30 Jul 23:47:54 23:52:39 61° 294° (WNW) 23:57:21 437.505
AISAT 30 Jul 23:56:29 00:00:45 46° 261° (W) 00:05:01 437.250
Cosmos 2491 30 Jul 23:56:48 00:05:31 68° 75° (ENE) 00:14:12 435.465 / 435.565
UKube-1 31 Jul 00:01:53 00:05:39 28° 265° (W) 00:09:23 .
BEESAT 3 31 Jul 00:15:02 00:18:17 23° 116° (ESE) 00:21:36 437.485
UNISAT 6 31 Jul 00:15:08 00:19:50 87° 280° (W) 00:24:33 437.425
CUBEBUG 1 31 Jul 00:15:13 00:19:28 52° 260° (W) 00:23:45 437.445
ITUPSAT 1 31 Jul 00:18:00 00:19:09 11° 52° (NE) 00:20:29 437.325
AUBIESAT-1 31 Jul 00:19:00 00:23:25 38° 299° (WNW) 00:27:45 437.475
HUMSAT D 31 Jul 00:24:11 00:26:04 12° 274° (W) 00:27:48 437.325/437.525
YUBILEINY 31 Jul 00:24:45 00:32:24 38° 85° (E) 00:40:16 435.215
POLYITAN 1 31 Jul 00:27:33 00:31:46 54° 100° (E) 00:35:59 437.675
DX 1 31 Jul 00:29:13 00:31:52 15° 271° (W) 00:34:23 434.975-435.025
50 SAT 31 Jul 00:32:22 00:35:02 17° 270° (W) 00:37:37 437.505
RS-15 31 Jul 00:32:36 00:43:32 62° 322° (NW) 00:54:57 29.354- 29.394
AIST 1 31 Jul 00:34:26 00:38:29 41° 267° (W) 00:42:28
VELOX 1 31 Jul 00:37:11 00:40:36 21° 269° (W) 00:43:55 145.980
ESTCUBE 1 31 Jul 00:42:34 00:46:25 26° 267° (W) 00:50:14 437.505/2401.250
POPSAT HIP 1 31 Jul 00:45:12 00:49:28 80° 101° (ESE) 00:53:45 437.405
QB50P2 31 Jul 00:52:30 00:56:48 84° 285° (WNW) 01:01:04 145.880/145.840
SPROUT 31 Jul 00:56:42 01:00:55 61° 259° (W) 01:05:10 437.525
BUGSAT 1 31 Jul 00:57:01 01:01:04 68° 102° (ESE) 01:05:08 437.445
AIST 2 31 Jul 00:57:45 00:59:42 13° 111° (ESE) 01:01:51 435.215
TIGRISAT 31 Jul 00:59:24 01:03:42 37° 293° (WNW) 01:08:00 435.000
ANTELSAT 31 Jul 01:00:36 01:04:52 35° 293° (WNW) 01:09:07 437.575/2403.000
ISS 31 Jul 01:03:53 01:07:07 62° 353° (N) 01:10:23 145.825
PHONESAT 2.4 31 Jul 01:06:31 01:08:38 15° 193° (SSW) 01:10:44 2401.200-2431.200
BEESAT 2 31 Jul 01:09:54 01:13:57 58° 125° (SE) 01:18:02 435.950
BEESAT 31 Jul 01:11:35 01:15:39 29° 64° (ENE) 01:19:48 436.000
TISAT 1 31 Jul 01:14:09 01:18:18 61° 259° (W) 01:22:28 437.305
DUCHIFAT 1 31 Jul 01:18:52 01:22:58 49° 290° (WNW) 01:27:04 145.980
QB50P1 31 Jul 01:21:04 01:25:09 45° 290° (WNW) 01:29:13 145.935-145.965
NANOSAT C BR1 31 Jul 01:22:54 01:26:57 44° 290° (WNW) 01:31:00 145.865
M-CUBED/EXP-1 PRIME 31 Jul 01:24:28 01:26:35 13° 312° (NW) 01:28:33 437.505
SWISSCUBE 31 Jul 01:31:21 01:35:53 45° 68° (ENE) 01:40:29 437.505
Cosmos 2504 31 Jul 01:38:30 01:40:01 11° 70° (ENE) 01:42:03 435.465 / 435.565
O/OREOS (USA 219) 31 Jul 01:38:52 01:41:31 16° 101° (E) 01:44:22 437.305
ITUPSAT 1 31 Jul 01:51:26 01:56:09 61° 71° (ENE) 02:00:56 437.325
BEESAT 3 31 Jul 01:51:58 01:55:58 51° 315° (NW) 01:59:59 437.485
UNISAT 6 31 Jul 01:53:25 01:55:58 14° 303° (WNW) 01:58:23 437.425
Cosmos 2491 31 Jul 01:54:22 02:01:51 32° 277° (W) 02:09:09 435.465 / 435.565
POLYITAN 1 31 Jul 02:04:12 02:07:20 20° 298° (WNW) 02:10:23 437.675
STARS 31 Jul 02:04:45 02:06:15 12° 56° (NE) 02:07:56 437.465
YUBILEINY 31 Jul 02:20:20 02:28:56 59° 287° (WNW) 02:37:36 435.215
POPSAT HIP 1 31 Jul 02:22:28 02:24:49 14° 301° (WNW) 02:27:04 437.405
ITAMSAT 1 31 Jul 02:22:45 02:23:42 11° 82° (E) 02:24:59 435.822/435.867
KKS-1 31 Jul 02:25:42 02:29:21 26° 64° (ENE) 02:33:05 437.445
QB50P2 31 Jul 02:30:15 02:32:03 12° 303° (WNW) 02:33:42 145.880/145.840
AIST 2 31 Jul 02:33:25 02:37:42 90° 141° (SE) 02:42:00 435.215
BUGSAT 1 31 Jul 02:33:40 02:36:06 15° 300° (WNW) 02:38:26 437.445
ISS 31 Jul 02:40:29 02:43:45 73° 11° (NNE) 02:47:01 145.825
Oscar 19 31 Jul 02:40:57 02:46:01 52° 99° (E) 02:51:05 437.125/150
RS-15 31 Jul 02:48:17 02:58:36 38° 354° (N) 03:09:21 29.354- 29.394
BEESAT 2 31 Jul 02:48:46 02:52:18 26° 325° (NW) 02:55:48 435.950
BEESAT 31 Jul 02:48:47 02:53:22 42° 262° (W) 02:57:56 436.000
MOZHAYETS 4 31 Jul 03:09:09 03:10:50 12° 55° (NE) 03:12:42
JAS-2 31 Jul 03:09:41 03:15:15 22° 83° (E) 03:21:07 435.910
SWISSCUBE 31 Jul 03:09:52 03:13:57 27° 267° (W) 03:17:59 437.505
O/OREOS (USA 219) 31 Jul 03:15:59 03:20:28 69° 299° (WNW) 03:24:59 437.305
Cosmos 2504 31 Jul 03:23:32 03:30:27 57° 92° (E) 03:37:58 435.465 / 435.565
Gurwin Techsat 1B 31 Jul 03:29:32 03:34:40 46° 98° (E) 03:39:46 435.225
ITUPSAT 1 31 Jul 03:30:55 03:34:30 20° 270° (W) 03:37:57 437.325
BEESAT 3 31 Jul 03:32:24 03:34:50 15° 338° (NNW) 03:37:11 437.485
STARS 31 Jul 03:37:39 03:42:00 77° 74° (ENE) 03:46:24 437.465
ITAMSAT 1 31 Jul 03:59:07 04:04:19 71° 103° (ESE) 04:09:29 435.822/435.867
KKS-1 31 Jul 04:01:39 04:05:51 40° 262° (W) 04:10:03 437.445
AIST 2 31 Jul 04:13:32 04:16:51 21° 330° (NNW) 04:20:07 435.215
ISS 31 Jul 04:17:03 04:20:03 34° 212° (SSW) 04:23:04 145.825
Oscar 19 31 Jul 04:20:48 04:25:08 27° 298° (WNW) 04:29:25 437.125/150
YUBILEINY 31 Jul 04:22:54 04:28:13 16° 314° (NW) 04:33:12 435.215
BEESAT 2 31 Jul 04:30:30 04:31:42 11° 348° (NNW) 04:32:51 435.950
MOZHAYETS 4 31 Jul 04:42:40 04:47:18 72° 74° (ENE) 04:51:58
DANDE 31 Jul 04:50:18 04:52:22 17° 96° (E) 04:54:19 436.750
JAS-2 31 Jul 04:53:35 05:01:25 84° 105° (ESE) 05:09:17 435.910
HORYU 2 31 Jul 04:54:14 04:58:27 37° 97° (E) 05:02:39 437.375
O/OREOS (USA 219) 31 Jul 04:58:26 05:00:50 14° 322° (NW) 05:03:08 437.305
CUBESAT XI-V 31 Jul 04:58:59 05:01:19 14° 57° (ENE) 05:03:48 437.345
AO-7 31 Jul 05:03:05 05:11:05 48° 99° (E) 05:19:04 29.400- 29.500
RS-15 31 Jul 05:03:16 05:14:18 48° 27° (NNE) 05:25:52 29.354- 29.394
GONETS M04 31 Jul 05:09:28 05:14:20 17° 74° (ENE) 05:19:40
Gurwin Techsat 1B 31 Jul 05:09:50 05:14:31 31° 297° (WNW) 05:19:06 435.225
Cosmos 2504 31 Jul 05:16:34 05:23:09 35° 296° (WNW) 05:30:05 435.465 / 435.565
STARS 31 Jul 05:16:50 05:19:05 13° 273° (W) 05:21:08 437.465
CUSAT 1 31 Jul 05:18:17 05:21:05 73° 101° (E) 05:23:41 437.405
ITAMSAT 1 31 Jul 05:39:29 05:43:22 21° 302° (WNW) 05:47:08 435.822/435.867
AIST 2 31 Jul 05:55:56 05:56:57 11° 354° (N) 05:57:56 435.215
BEESAT 2 31 Jul 06:10:18 06:11:30 11° 12° (NNE) 06:12:46 435.950
MOZHAYETS 4 31 Jul 06:22:12 06:25:06 16° 273° (W) 06:27:51
HORYU 2 31 Jul 06:31:03 06:34:59 29° 295° (WNW) 06:38:51 437.375
DANDE 31 Jul 06:33:11 06:35:25 18° 289° (WNW) 06:37:25 436.750
CUBESAT XI-V 31 Jul 06:33:25 06:38:07 86° 75° (ENE) 06:42:49 437.345
PRISM 31 Jul 06:33:45 06:37:12 26° 64° (ENE) 06:40:42 437.425
STRAND 1 31 Jul 06:35:22 06:40:02 37° 65° (ENE) 06:44:46 437.568
JAS-2 31 Jul 06:39:22 06:45:45 29° 304° (NW) 06:52:06 435.910
BEESAT 3 31 Jul 06:51:25 06:53:59 16° 25° (NNE) 06:56:36 437.485
AO-7 31 Jul 06:56:02 07:04:01 50° 301° (WNW) 07:11:53 29.400- 29.500
CUTE-I 31 Jul 06:57:32 07:02:01 27° 92° (E) 07:06:34 437.470
GONETS M04 31 Jul 07:01:09 07:09:47 73° 95° (E) 07:18:27
AIST 2 31 Jul 07:35:09 07:37:16 13° 18° (NNE) 07:39:26 435.215
